Showing default

FLOCK 4Q 7, 58318

Orbit data source: Space-Track

FLOCK 4Q 7, 58318 is a payload satellite owned by Planet (US) in SSO that was launched on Sat, 11 Nov 2023 UTC via an FALCON 9 launch vehicle from the Air Force Western Test Range (AFWTR). Payload-class satellites include a variety of spacecraft equipped with specific instruments for various scientific and technological missions. These include communications satellites like Starlink; space stations such as the ISS; scientific satellites like the Hubble; Earth observation satellites from companies like Planet Labs, Umbra, and HawkEye 360; GPS; miniature CubeSats for education and research; and military/defense satellites.

Loading next visibility...
Identifier
58318, 2023-174BQ
Orbit
SSO
Country
Flag of USUS
Related business
Manufacturer
Planet
Mission
Non-operational Commercial Imaging
Bus & Motor
CUBESAT 3U, Unknown motor
Mass
5.7 kg wet, 5.7 kg dry
Launch date (UTC)
2023-11-11 (3 years ago)
Launch vehicle
FALCON 9
Launch site
Air Force Western Test Range (AFWTR)
Object type
Payload
Rocket body
Debris
Shape & HBR
Box + 2 Pan, 1.0 m
Radar Cross Section
0.072 m², Medium (>0.1 m² and < 1m²)

Expand to show TLE details & history
Last TLE update: 2 days ago

TLE from 2 days ago
0 FLOCK 4Q 7
1 58318U 23174BQ  26252.52404502  .00022201  00000-0  25748-3 0  9997
2 58318  97.3883 347.1988 0004559 186.5609 173.5590 15.61800546158889
Epoch: 2026-09-09T12:34Z
TLE epoch observation values (Epoch: 2026-09-09T12:34:37.489Z)
Latitude
-0.00002°
Longitude
169.96773°
Altitude
388.667 km
Speed
7.675 km/s
True Right ascension
23h 08m 47s
True Declination
0° 00' 00"
Sunlit
Object was in full shadow at epoch
Visualization orbit readout
Latitude
Unknown
Longitude
Unknown
Altitude
Unknown
Speed
Unknown
Apparent Right ascension
Unknown
Apparent Declination
Unknown
Sunlit
N/A
Visualization observer readout
Local Sidereal Time
15:47:47
Azimuth
Unknown
Elevation
Unknown
Doppler factor
Unknown
Orbital elements
Apogee altitude
382.446 km
Perigee altitude
376.285 km
Semi-major axis
6,757.503 km
Eccentricity
0.00046
Inclination
97.3883°
RAAN
347.1988°
Arg. of periapsis
186.5609°
True anomaly
173.56486°
Mean anomaly
173.559°
Eccentric anomaly
173.56193°
Mean motion
3.90718 °/min
Orbital period
92.14 mins
BSTAR
0.00025748
Loading maneuver chart data...
Computing Atmospheric mass density...

Documentation

Showing up to 5 results
|